Port Austin, MI

8:10 PM EST on February 22, 2017 (GMT -0500)
Port Hope

Weather History for KP58 - January, 2013

Change the Weather History Date:

Sunday, January 6, 2013

  Actual Average Record
Temperature  
Mean Temperature 32 °F -  
Max Temperature 35 °F 31 °F 53 °F (1998)
Min Temperature 30 °F 21 °F 5 °F (2015)
Degree Days  
Heating Degree Days 32    
Moisture  
Dew Point 29 °F    
Average Humidity 85    
Maximum Humidity 92    
Minimum Humidity 69    
Precipitation  
Precipitation 0.14 in - - ()
Sea Level Pressure  
Sea Level Pressure 29.97 in    
Wind  
Wind Speed 8 mph (West)    
Max Wind Speed 12 mph    
Max Gust Speed 22 mph    
Averages and records for this station are not official NWS values.
T = Trace of Precipitation, MM = Missing Value Source: NWS Daily Summary

Daily Weather History Graph

Daily Weather History Graph

Search for Another Location

Airport or City:

Trip Planner

Search our weather history database for the weather conditions in past years. The results will help you decide how hot, cold, wet, or windy it might be!

Date:

Astronomy

Jan. 06, 2013 Rise Set
Actual Time 8:05 AM EST 5:08 PM EST
Civil Twilight 7:33 AM EST 5:41 PM EST
Nautical Twilight 6:56 AM EST 6:17 PM EST
Astronomical Twilight 6:22 AM EST 6:52 PM EST
Moon 2:14 AM EST (1/6) 12:39 PM EST (1/6)
Length of Visible Light 10h 08m
Length of Day
9h 03m
Waning Crescent, 33% of the Moon is Illuminated
Jan 6
Waning Crescent
Jan 11
New
Jan 18
First Quarter
Jan 26
Full
Feb 3
Last Quarter

Hourly Weather History & Observations

Time (EST) Temp. Windchill Dew Point Humidity Pressure Visibility Wind Dir Wind Speed Gust Speed Precip Events Conditions
12:51 AM 32.0 °F 25.6 °F 28.9 °F 88% 29.92 in - SW 6.9 mph - 0.02 in   Unknown
1:51 AM 33.1 °F 24.9 °F 30.0 °F 89% 29.91 in - SW 10.4 mph 20.7 mph 0.01 in   Unknown
2:51 AM 34.0 °F 26.0 °F 30.0 °F 85% 29.89 in - SW 10.4 mph 18.4 mph 0.01 in   Unknown
3:51 AM 34.0 °F 26.6 °F 30.0 °F 85% 29.88 in - SW 9.2 mph 20.7 mph N/A   Unknown
4:51 AM 34.0 °F 26.6 °F 30.0 °F 85% 29.86 in - SW 9.2 mph 18.4 mph N/A   Unknown
5:51 AM 34.0 °F 26.6 °F 30.9 °F 89% 29.85 in - SW 9.2 mph - 0.01 in   Unknown
6:51 AM 33.1 °F 26.1 °F 30.9 °F 92% 29.86 in - SW 8.1 mph - 0.02 in   Unknown
7:51 AM 33.1 °F 26.1 °F 30.9 °F 92% 29.86 in - SW 8.1 mph - 0.03 in   Unknown
8:51 AM 34.0 °F 28.8 °F 30.9 °F 89% 29.87 in - SW 5.8 mph - 0.01 in   Unknown
9:51 AM 34.0 °F 28.8 °F 30.9 °F 89% 29.87 in - SW 5.8 mph - N/A   Unknown
10:51 AM 35.1 °F 30.1 °F 30.9 °F 85% 29.88 in - Variable 5.8 mph - N/A   Unknown
11:51 AM 34.0 °F 29.8 °F 30.9 °F 89% 29.87 in - Variable 4.6 mph - N/A   Unknown
12:51 PM 34.0 °F 29.8 °F 32.0 °F 92% 29.88 in - Variable 4.6 mph - 0.01 in   Unknown
1:51 PM 34.0 °F 28.8 °F 30.9 °F 89% 29.87 in - NW 5.8 mph - 0.01 in   Unknown
2:51 PM 33.1 °F 26.9 °F 30.0 °F 89% 29.91 in - NW 6.9 mph - N/A   Unknown
3:51 PM 33.1 °F 26.1 °F 30.0 °F 89% 29.95 in - NW 8.1 mph - N/A   Unknown
4:51 PM 33.1 °F 24.4 °F 30.9 °F 92% 29.99 in - North 11.5 mph - N/A   Unknown
5:51 PM 33.1 °F 27.7 °F 28.9 °F 85% 30.03 in - NNW 5.8 mph - 0.01 in   Unknown
6:51 PM 32.0 °F 26.4 °F 27.0 °F 82% 30.11 in - NNW 5.8 mph - N/A   Unknown
7:51 PM 32.0 °F 24.8 °F 25.0 °F 75% 30.14 in - North 8.1 mph 21.9 mph N/A   Unknown
8:51 PM 30.9 °F 25.2 °F 23.0 °F 72% 30.17 in - NNW 5.8 mph - N/A   Unknown
9:51 PM 30.9 °F 25.2 °F 21.9 °F 69% 30.21 in - NW 5.8 mph - N/A   Unknown
10:51 PM 30.0 °F 24.1 °F 21.9 °F 72% 30.22 in - NNW 5.8 mph - N/A   Unknown
11:51 PM 30.0 °F 22.4 °F 21.0 °F 69% 30.25 in - WNW 8.1 mph - N/A   Unknown